Location: Newark
(45.6000°N, 10.5333°E)
Time: 20:58:59
(UTC+00:00)

OTV 5 (USA 277) - Visible Passes

Search period start: 15 October 2019 00:00
Search period end: 25 October 2019 00:00
Orbit: 310 x 324 km, 54.5° (Epoch: 08 October)

Date Brightness Start Highest point End Pass type
(mag) Time Alt. Az. Time Alt. Az. Time Alt. Az.
15 Oct ? 03:53:05 16° N 03:53:43 17° NNE 03:55:39 10° ENE visible
16 Oct ? 04:07:19 18° NNW 04:08:32 25° NNE 04:10:53 10° E visible
17 Oct ? 04:21:37 20° NW 04:23:14 46° NNE 04:25:53 10° ESE visible
18 Oct ? 03:05:07 12° ENE 03:05:07 12° ENE 03:05:24 10° ENE visible
18 Oct ? 04:36:01 19° WNW 04:37:49 72° SW 04:40:33 10° SE visible
19 Oct ? 03:19:36 18° E 03:19:36 18° E 03:20:33 10° E visible
19 Oct ? 04:50:31 14° W 04:52:17 27° SW 04:54:39 10° SSE visible
20 Oct ? 03:34:13 22° ESE 03:34:13 22° ESE 03:35:24 10° ESE visible
20 Oct ? 05:05:42 10° WSW 05:06:36 11° SW 05:07:28 10° SSW visible
21 Oct ? 03:48:58 17° SSE 03:48:58 17° SSE 03:49:48 10° SSE visible
